Orbital Elements at Epoch 2459200.5 (2020-Dec-17.0) TDB
Reference: JPL 15 (heliocentric ecliptic J2000)
Element | Value | Uncertainty (1-sigma) | Units |
e | .133698214916935 | 4.6947e-08 | |
a | 2.631855978213962 | 1.6655e-08 | au |
q | 2.279981532008291 | 1.2534e-07 | au |
i | 3.10218759635851 | 5.333e-06 | deg |
node | 58.94147103076875 | 9.0249e-05 | deg |
peri | 110.4430801360805 | 9.2446e-05 | deg |
M | 354.2622686618349 | 2.2212e-05 | deg |
tp | 2459225.355889816440 (2021-Jan-10.85588982) | 9.6335e-05 | TDB |
period | 1559.522362854286 4.27 | 1.4804e-05 4.053e-08 | d yr |
n | .2308399087917641 | 2.1912e-09 | deg/d |
Q | 2.983730424419633 | 1.8882e-08 | au |
|
| | Orbit Determination Parameters
Additional Information
|